{"data":{"norad_id":58233,"intl_designator":"2023-171D","name":"STARLINK-30777","alt_names":[],"object_type":"PAYLOAD","status":"ACTIVE","operator":null,"country":"US","launch_date":"2023-11-08","launch_site_code":"AFETR","launch_vehicle":null,"mission":null,"orbit_class":"UNKNOWN","rcs_meters":null,"size_class":null,"mass_kg":null,"dimensions":null,"purposes":["comms"],"wikipedia_slug":null,"has_3d_model":false,"image_url":null,"decayed_at":null,"tle_current":{"epoch":"2026-09-20T16:36:59.677632Z","epoch_age_seconds":127056,"freshness":"FRESH","line1":"1 58233U 23171D   26263.69235738  .00000311  00000+0  20834-4 0  9992","line2":"2 58233  43.0012 264.3062 0001130 275.4577  84.6146 15.27575684159552","mean_motion":15.27575684,"eccentricity":0.000113,"inclination_deg":43.0012,"raan_deg":264.3062,"arg_perigee_deg":275.4577,"mean_anomaly_deg":84.6146,"bstar":2.0834e-5,"rev_number":15955,"period_min":94.267015054162,"perigee_km":482.28670423753,"apogee_km":483.83733521598,"semimajor_km":6861.1990197268,"source":"CELESTRAK","updated_at":"2026-09-21T09:00:33.836644Z"}}}